Tracking 29528 objects as of 12-Sep-2024
HD Live streaming from Space Station
objects crossing your sky now

FENGYUN 1C DEB

Track FENGYUN 1C DEB now!
10-day predictions


NORAD ID: 33730
Int'l Code: 1999-025DHT
Perigee: 693.8 km
Apogee: 762.3 km
Inclination: 99.1 °
Period: 99.2 minutes
Semi major axis: 7099 km
RCS: 0.0099 m2 (small)
Launch date: May 10, 1999
Source: People's Republic of China (PRC)
Launch site: Taiyaun Space Center, China (TSC)

Note: This is SATELLITE DEBRIS
Your satellite tracking list
Your tracking list is empty




NASA's NSSDC Master Catalog

Two Line Element Set (TLE):
1 33730U 99025DHT 24248.24539869  .00027334  00000-0  67283-2 0  9994
2 33730  99.0970 257.5800 0048259 342.2937  17.6572 14.51459074889099
Source of the keplerian elements: AFSPC